Location: Newark
(59.4564°N, 26.6917°E)
Time: 13:37:32
(UTC+00:00)

SR - Pass Details

Date: 28 November 2019
Orbit: 573 x 882 km, 66.7° (Epoch: 07 December)

Event Time Altitude Azimuth Distance (km) Brightness Sun altitude
Rises 11:30:44 0° 212° (SSW) 3,288 ? 7.2°
Reaches altitude 10° 11:33:06 10° 209° (SSW) 2,403 ? 7.1°
Maximum altitude 11:38:36 61° 130° (SE) 963 ? 6.8°
Drops below altitude 10° 11:44:26 10° 52° (NE) 2,542 ? 6.5°
Sets 11:47:00 0° 49° (NE) 3,493 ? 6.4°
